Voltar ao catálogo

ONEWEB-0405

AtivoComunicaçõesPO
NORAD 50485·PAYLOAD·🇬🇧 United Kingdom

Lançado Dec 27, 2021 de Baikonur Cosmodrome

Loading…

Próximas Passagens (próximas 24 horas)

TLE

AtualizadoSource: CelesTrak SupGP

Época: Sep 14, 2026, 16:33 UTC

1 50485C 21132S   26257.68973796 -.00001005  00000+0 -25523-2 0  2571
2 50485  87.9173 317.6642 0001499  98.0948  14.0825 13.18688880    11

Acompanhe ONEWEB-0405 em tempo real com AllMySat

Download on the App Store